Content
SEND FEEDBACK

Daily
Averages
Monthly
Summary
United States of America

BAYSIDE, NEW YORK


Home > North America > United States > New York
Elevation: 11 feet     Latitude: 40 46N     Longitude: 073 54W

WEATHER
 
SELECT A DAY
Number of Records: 194,926;   Date Range: 1/1/95 - 11/26/14
 
SHARE

PRINT THIS DATA

[ ← Previous Day ]
WEATHER ALMANAC - FEBRUARY 9, 2013
[ Next Day → ]
[ °C ]   °F
Weather ElementAverageHighLow
Temperature29 °F34 °F (2:51 pm)24.1 °F (11:51 pm)
Dewpoint16.9 °F26.1 °F (2:51 am)5 °F (6:51 pm)
Humidity63.4 %92 % (2:51 am)35 % (5:51 pm)
Barometer29.98 in30.34 in (11:51 pm)29.77 in (1:47 am)
Wind Speed17.8 mph27.6 mph (8:51 am)
Wind Gust36.8 mph (8:51 am)
Weather ElementAverage
Visibility7.3 mi
Wind DirectionNNW (324.8 °)

Weather ElementTotal
Precipitation0.31 in
Heating Degree Days36 (Base 65)
Averaged from 29 records on February 9, 2013
WEATHER CONDITIONS BREAKOUT
WIND DIRECTION BREAKOUT
WEATHER BY HOUR - FEBRUARY 9, 2013
[ °C ]   °F
Local TimeTemperatureDewpointHumidityBarometerVisibilityWind DirectionWind SpeedGust SpeedPrecipitationEventsConditions
1:47 AM28.4 °F24.8 °F86 %29.77 in0.5 miNorth (350°)15.0 mph20.7 mph0.06 inFog-SnowSnow
1:51 AM28.0 °F25.0 °F88 %29.78 in0.5 miNorth (350°)12.7 mph0.06 inFog-SnowSnow
2:51 AM28.0 °F26.1 °F92 %29.78 in0.5 miNNW (330°)13.8 mph0.07 inFog-SnowSnow
3:35 AM28.4 °F24.8 °F86 %29.79 in1.2 miNNW (340°)16.1 mph0.04 inSnowLight Snow
3:48 AM28.4 °F24.8 °F86 %29.79 in2.0 miNNW (340°)13.8 mph0.04 inSnowLight Snow
3:51 AM28.0 °F24.1 °F85 %29.79 in1.8 miNNW (340°)12.7 mph0.04 inSnowLight Snow
4:24 AM28.4 °F23.0 °F80 %29.81 in7.0 miNNW (330°)17.3 mph0.00 inSnowLight Snow
4:41 AM28.4 °F24.8 °F86 %29.81 in2.0 miNNW (330°)13.8 mph0.00 inSnowLight Snow
4:51 AM28.0 °F24.1 °F85 %29.82 in2.0 miNNW (330°)13.8 mph0.00 inSnowLight Snow
5:10 AM28.4 °F24.8 °F86 %29.81 in5.0 miNW (320°)18.4 mph27.6 mph0.00 inSnowLight Snow
5:51 AM30.0 °F23.0 °F75 %29.82 in10.0 miNW (310°)17.3 mph25.3 mph0.00 inOvercast
6:51 AM30.0 °F21.9 °F72 %29.85 in10.0 miNW (310°)19.6 mph29.9 mph0.00 inOvercast
7:51 AM30.0 °F21.9 °F72 %29.88 in10.0 miNW (310°)20.7 mph24.2 mphMostly Cloudy
8:51 AM28.9 °F19.0 °F67 %29.92 in10.0 miNW (320°)27.6 mph36.8 mphMostly Cloudy
9:51 AM28.0 °F17.1 °F63 %29.96 in10.0 miNW (320°)21.9 mph32.2 mphMostly Cloudy
10:51 AM28.0 °F17.1 °F63 %29.99 in10.0 miNW (310°)18.4 mph28.8 mphMostly Cloudy
11:51 AM30.0 °F17.1 °F59 %30.00 in10.0 miNW (320°)18.4 mph26.5 mphMostly Cloudy
12:51 PM32.0 °F15.1 °F50 %30.01 in10.0 miNNW (330°)18.4 mph29.9 mphScattered Clouds
1:51 PM32.0 °F14.0 °F48 %30.04 in10.0 miNW (310°)24.2 mph31.1 mphScattered Clouds
2:51 PM34.0 °F12.0 °F40 %30.05 in10.0 miNW (320°)20.7 mph28.8 mphScattered Clouds
3:51 PM33.1 °F9.0 °F37 %30.08 in10.0 miNW (310°)20.7 mph26.5 mphPartly Cloudy
4:51 PM32.0 °F10.0 °F40 %30.11 in10.0 miNW (320°)16.1 mph28.8 mphClear
5:51 PM30.9 °F6.1 °F35 %30.16 in10.0 miNNW (330°)20.7 mphClear
6:51 PM28.9 °F5.0 °F36 %30.19 in10.0 miNNW (330°)18.4 mph28.8 mphClear
7:51 PM28.4 °F8.6 °F43 %30.22 in10.0 miNNW (330°)16.1 mphClear
8:51 PM27.0 °F7.0 °F43 %30.27 in10.0 miNW (320°)18.4 mphClear
9:51 PM26.1 °F6.1 °F43 %30.30 in10.0 miNW (320°)18.4 mph26.5 mphClear
10:51 PM25.0 °F6.1 °F45 %30.31 in10.0 miNNW (330°)15.0 mphClear
11:51 PM24.1 °F7.0 °F48 %30.34 in10.0 miNW (310°)18.4 mphClear
Hourly data recorded from KLGA, located miles away from Bayside, New York







STORIES FROM OUR PARTNERS